Location: Unspecified
(51.0000°N, 12.0000°E)
Time: 22:02:37
(UTC+02:00)

OTV 5 (USA 277) - Pass Details

Date: 30 April 2019
Orbit: 310 x 325 km, 54.5° (Epoch: 08 May)

Event Time Altitude Azimuth Distance (km) Brightness Sun altitude
Rises 23:04:51 0° 289° (WNW) 2,039 ? -18.7°
Reaches altitude 10° 23:06:52 10° 297° (WNW) 1,209 ? -18.9°
Maximum altitude 23:09:27 43° 12° (NNE) 454 ? -19.1°
Enters shadow 23:09:31 43° 17° (NNE) 455 ? -19.1°
